This is the latest recevied weather packets stored in our database for station/object F4IVW-13. If no packets are shown the sender has not sent any weather packets the latest 10 day(s).
| Time | Temp. | Humidity | Pressure | Rain* | Wind** | Luminosity | Snow |
|---|---|---|---|---|---|---|---|
| 1777387765 | 21.67° C | 99% | 1012.4 hPa | 0 mm | - | 12 W/m² | - |
| 1777387439 | 21.11° C | 99% | 1012.6 hPa | 0 mm | - | 8 W/m² | - |
| 1777387122 | 21.11° C | 99% | 1012.7 hPa | 0 mm | - | 7 W/m² | - |
| 1777386805 | 21.11° C | 99% | 1012.7 hPa | 0 mm | - | 6 W/m² | - |
| 1777386488 | 21.11° C | 99% | 1012.8 hPa | 0 mm | - | 6 W/m² | - |
| 1777386171 | 21.67° C | 99% | 1012.8 hPa | 0 mm | - | 4 W/m² | - |
| 1777385862 | 21.67° C | 99% | 1012.9 hPa | 0 mm | - | 8 W/m² | - |
| 1777385536 | 21.67° C | 99% | 1012.8 hPa | 0 mm | - | 14 W/m² | - |
| 1777385219 | 21.67° C | 99% | 1012.8 hPa | 0 mm | - | 14 W/m² | - |
| 1777384899 | 21.67° C | 99% | 1012.9 hPa | 0 mm | - | 10 W/m² | - |
| 1777384583 | 21.67° C | 99% | 1013 hPa | 0 mm | - | 5 W/m² | - |
| 1777384265 | 22.22° C | 99% | 1013.1 hPa | 0 mm | - | 6 W/m² | - |
| 1777383954 | 22.22° C | 99% | 1013.2 hPa | 0 mm | - | 10 W/m² | - |
| 1777383628 | 22.22° C | 99% | 1013.2 hPa | 0 mm | - | 16 W/m² | - |
| 1777383310 | 21.67° C | 99% | 1013.3 hPa | 0 mm | - | 27 W/m² | - |
| 1777382993 | 21.67° C | 99% | 1013.4 hPa | 0 mm | - | 15 W/m² | - |
| 1777382676 | 21.67° C | 99% | 1013.4 hPa | 0 mm | - | 11 W/m² | - |
| 1777382359 | 21.67° C | 99% | 1013.5 hPa | 0 mm | - | 12 W/m² | - |
| 1777382051 | 21.67° C | 99% | 1013.5 hPa | 0 mm | - | 19 W/m² | - |
| 1777381726 | 21.67° C | 99% | 1013.7 hPa | 0 mm | - | 29 W/m² | - |
| 1777381407 | 21.67° C | 99% | 1013.7 hPa | 0 mm | - | 14 W/m² | - |
| 1777380769 | 21.67° C | 99% | 1014 hPa | 0 mm | - | 14 W/m² | - |
| 1777380452 | 21.67° C | 99% | 1014.1 hPa | 0 mm | - | 17 W/m² | - |
| 1777380143 | 21.11° C | 99% | 1014.1 hPa | 0 mm | - | 18 W/m² | - |
| 1777379818 | 21.11° C | 99% | 1014.2 hPa | 0 mm | - | 18 W/m² | - |
* Rain latest hour (hover to see other rain measurements)
** Current wind speed in m/s (hover to see current wind gust speed)